Regional Weather Roundup
Issued by NWS Midland/Odessa, TX

Skip options and go directly to product.
Home | Oldest Version | Previous Version | Current Version | All | Text Only | Save Text | Print | Product List | Glossary Off

Skip product version selection by date and time.   

211
ASUS44 KMAF 010510
RWRMAF
MIDLAND AREA WEATHER ROUNDUP
NATIONAL WEATHER SERVICE MIDLAND TX
1200 AM CDT THU SEP 01 2016

...IN SOUTHWEST TEXAS AND SOUTHEAST NEW MEXICO...

CITY           SKY/WX    TMP DP  RH WIND       PRES   REMARKS
ALPINE         CLOUDY    68  65  90 CALM      30.29S
ANDREWS        CLOUDY    69  69 100 NE6       30.19R
ARTESIA        HVY RAIN  68  68 100 N6        30.21S
BIG SPRING     CLOUDY    73  68  85 NE16      30.16S
CARLSBAD       CLOUDY    70  68  93 NE3       30.18R
DRYDEN           N/A     78  69  73 N7        30.07S
FORT STOCKTON  MOCLDY    72  66  81 NE8       30.15S
GUAD PASS      MOCLDY    63  63 100 NE25      30.28F
HOBBS          CLOUDY    68  68 100 NE8       30.22S
MARFA          CLOUDY   N/A N/A N/A NE7       30.27R
MIDLAND AIRPK  CLOUDY    74  68  79 NE5       30.16F
MIDLAND INTL   LGT RAIN  72  68  87 NE8       30.16S
ODESSA         CLOUDY    72  66  81 NE7       30.17F
PECOS          CLOUDY    73  67  81 CALM      30.15R
PRESIDIO       FAIR      78  63  58 N8        30.10
SEMINOLE       CLOUDY    69  66  91 CALM      30.21S
SNYDER           N/A     71  70  98 N5        30.15S
WINK           CLOUDY    72  66  81 E7        30.14S
$$
...OTHER STATIONS IN TEXAS...

CITY           SKY/WX    TMP DP  RH WIND       PRES   REMARKS
ABILENE        CLOUDY    74  70  87 E3        30.11S
AMARILLO       CLOUDY    67  65  93 E8        30.23S
AUSTIN         PTCLDY    76  74  93 S3        29.97S
BROWNSVILLE    CLEAR     80  77  90 NW3       29.91S
CORPUS CHRISTI CLOUDY    79  75  87 N5        29.92S
DALLAS FTW     MOCLDY    84  72  67 N9        29.99R
DEL RIO        CLOUDY    80  74  81 CALM      29.99S
EL PASO        MOCLDY    74  64  71 E8        30.16R
HOUSTON INT    PTCLDY    81  74  79 CALM      29.92S
LUBBOCK        DRIZZLE   69  66  90 E7        30.20R
SAN ANGELO     CLOUDY    78  69  73 NE6       30.09R
SAN ANTONIO    CLOUDY    77  69  76 NW6       29.99S
WACO           CLEAR     76  73  91 CALM      29.98S
WICHITA FALLS  NOT AVBL
$$
...OTHER LOCATIONS IN NEW MEXICO...

CITY           SKY/WX    TMP DP  RH WIND       PRES   REMARKS
ALAMAGORDO     PTCLDY    72  61  68 NW3       30.19S
ALBUQUERQUE    PTCLDY    71  55  56 E16       30.26R
CANNON AFB     PTCLDY    64  64 100 SE7       30.25R
CLOVIS         CLOUDY    64  61  88 CALM      30.25R
HOLLOMAN AFB   CLOUDY    72  61  68 W1        30.17R
ROSWELL        CLOUDY    69  66  90 SE6       30.21R
RUIDOSO        FOG       57  57 100 SE6       30.39S VSB<1/4
SANTA FE       CLEAR     59  52  77 S5        30.33R
TRUTH OR CONSE MOCLDY    72  55  55 E5        30.21R
TUCUMCARI      NOT AVBL
$$

USA.gov is the U.S. government's official web portal to all federal, state and local government web resources and services.